Data for 12/04/2017

Time Sea-Level Adjusted Pressure Absolute Pressure Temperature Relative Humidity Dew Point   
(mb) (inHg) (mb) (inHg) (C) (F) (%) (C) (F)
00:05 1016 30 845 24.95 -3 26.5 94 -3.9 24.9
00:10 1016 30 845 24.95 -3.1 26.5 94 -4 24.9
00:15 1016 30 845 24.95 -3.1 26.4 94 -4 24.8
00:20 1016 30 845 24.95 -3.1 26.3 93 -4.1 24.7
00:25 1016 30 845 24.95 -3.2 26.3 93 -4.1 24.7
00:30 1016 30 845 24.95 -3.2 26.2 93 -4.1 24.6
00:35 1016 30 845 24.95 -3.3 26.1 93 -4.2 24.4
00:40 1016 30 845 24.95 -3.3 26 93 -4.3 24.3
00:45 1016 30 845 24.95 -3.3 26 93 -4.3 24.3
00:50 1016 30 845 24.95 -3.4 25.9 93 -4.4 24.2
00:55 1016 30 846 24.98 -3.4 25.8 93 -4.4 24.1
01:00 1016 30 846 24.98 -3.4 25.8 93 -4.4 24.1
01:05 1016 30 846 24.98 -3.5 25.8 93 -4.5 24
01:10 1016 30 846 24.98 -3.5 25.7 93 -4.5 24
01:15 1016 30 846 24.98 -3.5 25.7 93 -4.5 23.9
01:20 1016 30 846 24.98 -3.5 25.6 93 -4.5 23.8
01:25 1017 30.03 846 24.98 -3.6 25.6 93 -4.6 23.8
01:30 1017 30.03 846 24.98 -3.6 25.5 93 -4.6 23.7
01:35 1017 30.03 846 24.98 -3.6 25.5 93 -4.6 23.7
01:40 1017 30.03 846 24.98 -3.7 25.4 93 -4.7 23.5
01:45 1017 30.03 846 24.98 -3.7 25.4 93 -4.7 23.6
01:50 1017 30.03 846 24.98 -3.7 25.3 93 -4.7 23.5
01:55 1017 30.03 846 24.98 -3.7 25.3 93 -4.8 23.4
02:00 1017 30.03 846 24.98 -3.8 25.2 93 -4.8 23.3
02:05 1017 30.03 846 24.98 -3.8 25.1 93 -4.9 23.2
02:10 1017 30.03 846 24.98 -3.9 24.9 93 -4.9 23.1
02:15 1017 30.03 846 24.98 -4 24.9 93 -5 23
02:20 1017 30.03 846 24.98 -4 24.8 93 -5 23
02:25 1017 30.03 846 24.98 -4 24.8 92 -5 22.9
02:30 1017 30.03 847 25.01 -4 24.8 93 -5 22.9
02:35 1017 30.03 847 25.01 -4 24.7 92 -5.1 22.8
02:40 1017 30.03 847 25.01 -4.1 24.6 92 -5.2 22.7
02:45 1018 30.06 847 25.01 -4.1 24.6 92 -5.2 22.6
02:50 1018 30.06 847 25.01 -4.2 24.5 92 -5.2 22.6
02:55 1018 30.06 847 25.01 -4.2 24.5 92 -5.2 22.6
03:00 1018 30.06 847 25.01 -4.2 24.4 92 -5.3 22.5
03:05 1018 30.06 847 25.01 -4.2 24.5 92 -5.3 22.5
03:10 1018 30.06 847 25.01 -4.2 24.4 92 -5.3 22.4
03:15 1018 30.06 847 25.01 -4.2 24.4 92 -5.3 22.4
03:20 1018 30.06 847 25.01 -4.3 24.3 92 -5.4 22.3
03:25 1018 30.06 847 25.01 -4.3 24.2 92 -5.4 22.3
03:30 1018 30.06 847 25.01 -4.4 24.1 92 -5.5 22.1
03:35 1018 30.06 847 25.01 -4.4 24 92 -5.5 22
03:40 1018 30.06 847 25.01 -4.4 24 92 -5.6 22
03:45 1018 30.06 847 25.01 -4.5 23.9 92 -5.6 21.9
03:50 1018 30.06 847 25.01 -4.5 23.9 92 -5.7 21.8
03:55 1018 30.06 847 25.01 -4.5 23.8 92 -5.7 21.8
04:00 1018 30.06 847 25.01 -4.5 23.8 92 -5.7 21.7
04:05 1018 30.06 847 25.01 -4.6 23.7 92 -5.8 21.6
04:10 1018 30.06 848 25.04 -4.6 23.7 92 -5.8 21.6
04:15 1018 30.06 848 25.04 -4.6 23.7 92 -5.8 21.6
04:20 1018 30.06 848 25.04 -4.6 23.7 92 -5.8 21.6
04:25 1019 30.09 848 25.04 -4.6 23.7 92 -5.8 21.6
04:30 1018 30.06 848 25.04 -4.6 23.7 91 -5.8 21.5
04:35 1019 30.09 848 25.04 -4.7 23.6 91 -5.8 21.5
04:40 1019 30.09 848 25.04 -4.7 23.6 91 -5.9 21.4
04:45 1019 30.09 848 25.04 -4.7 23.5 91 -5.9 21.3
04:50 1019 30.09 848 25.04 -4.8 23.4 91 -6 21.3
04:55 1019 30.09 848 25.04 -4.8 23.4 91 -6 21.2
05:00 1019 30.09 848 25.04 -4.8 23.3 91 -6.1 21.1
05:05 1019 30.09 848 25.04 -4.8 23.3 91 -6.1 21.1
05:10 1019 30.09 848 25.04 -4.9 23.2 91 -6.1 21
05:15 1019 30.09 848 25.04 -4.9 23.2 91 -6.1 21
05:20 1019 30.09 848 25.04 -4.9 23.2 91 -6.1 21
05:25 1019 30.09 848 25.04 -4.9 23.1 91 -6.2 20.9
05:30 1019 30.09 848 25.04 -4.9 23.2 91 -6.2 20.9
05:35 1019 30.09 848 25.04 -4.9 23.1 91 -6.2 20.9
05:40 1019 30.09 848 25.04 -4.9 23.2 91 -6.2 20.9
05:45 1019 30.09 848 25.04 -4.9 23.2 91 -6.2 20.9
05:50 1019 30.09 849 25.07 -4.9 23.2 91 -6.1 20.9
05:55 1019 30.09 849 25.07 -4.9 23.2 91 -6.2 20.9
06:00 1019 30.09 849 25.07 -4.9 23.1 91 -6.2 20.8
06:05 1020 30.12 849 25.07 -5 23 91 -6.3 20.7
06:10 1020 30.12 849 25.07 -5 23 91 -6.3 20.6
06:15 1020 30.12 849 25.07 -5 23 91 -6.3 20.7
06:20 1020 30.12 849 25.07 -5 23 91 -6.3 20.7
06:25 1020 30.12 849 25.07 -5 23 91 -6.3 20.7
06:30 1020 30.12 849 25.07 -5 23 91 -6.3 20.7
06:35 1020 30.12 849 25.07 -5 22.9 91 -6.3 20.7
06:40 1020 30.12 849 25.07 -5 23 91 -6.3 20.7
06:45 1020 30.12 849 25.07 -5 23 91 -6.3 20.7
06:50 1020 30.12 849 25.07 -5 23 91 -6.3 20.6
06:55 1020 30.12 849 25.07 -5 23 91 -6.3 20.6
07:00 1020 30.12 849 25.07 -5 22.9 91 -6.4 20.6
07:05 1020 30.12 849 25.07 -5 23 91 -6.3 20.6
07:10 1020 30.12 850 25.1 -5 22.9 91 -6.3 20.6
07:15 1020 30.12 850 25.1 -5 23 91 -6.3 20.7
07:20 1020 30.12 850 25.1 -5 23 91 -6.3 20.7
07:25 1020 30.12 850 25.1 -5 22.9 91 -6.3 20.6
07:30 1020 30.12 850 25.1 -5 23 91 -6.3 20.7
07:35 1021 30.15 850 25.1 -5 22.9 91 -6.3 20.6
07:40 1021 30.15 850 25.1 -5.1 22.9 91 -6.3 20.6
07:45 1021 30.15 850 25.1 -5.1 22.9 91 -6.3 20.6
07:50 1021 30.15 850 25.1 -5.1 22.9 91 -6.3 20.6
07:55 1021 30.15 850 25.1 -5.1 22.9 91 -6.3 20.6
08:00 1021 30.15 850 25.1 -5.1 22.9 91 -6.3 20.7
08:05 1021 30.15 850 25.1 -5 23 91 -6.2 20.8
08:10 1021 30.15 850 25.1 -5 23 91 -6.2 20.8
08:15 1021 30.15 850 25.1 -4.9 23.1 91 -6.2 20.9
08:20 1021 30.15 850 25.1 -4.9 23.1 91 -6.2 20.9
08:25 1021 30.15 850 25.1 -4.9 23.2 91 -6.1 20.9
08:30 1021 30.15 850 25.1 -4.9 23.3 91 -6.1 21
08:35 1021 30.15 851 25.13 -4.8 23.3 91 -6.1 21.1
08:40 1021 30.15 851 25.13 -4.8 23.4 91 -6 21.1
08:45 1021 30.15 851 25.13 -4.7 23.5 91 -6 21.2
08:50 1021 30.15 851 25.13 -4.7 23.5 91 -6 21.3
08:55 1022 30.18 851 25.13 -4.6 23.7 91 -5.9 21.4
09:00 1022 30.18 851 25.13 -4.6 23.8 91 -5.9 21.5
09:05 1022 30.18 851 25.13 -4.5 23.9 91 -5.8 21.5
09:10 1022 30.18 851 25.13 -4.5 23.9 91 -5.8 21.5
09:15 1022 30.18 851 25.13 -4.4 24 91 -5.8 21.6
09:20 1022 30.18 851 25.13 -4.3 24.2 90 -5.7 21.7
09:25 1022 30.18 851 25.13 -4.3 24.3 90 -5.7 21.8
09:30 1022 30.18 851 25.13 -4.2 24.5 90 -5.6 21.8
09:35 1022 30.18 851 25.13 -4.1 24.6 89 -5.6 21.9
09:40 1022 30.18 851 25.13 -4 24.8 89 -5.5 22.1
09:45 1022 30.18 851 25.13 -3.8 25.1 89 -5.4 22.3
09:50 1022 30.18 851 25.13 -3.7 25.3 89 -5.3 22.5
09:55 1022 30.18 851 25.13 -3.5 25.7 88 -5.2 22.6
10:00 1022 30.18 852 25.16 -3.5 25.7 88 -5.3 22.5
10:05 1022 30.18 852 25.16 -3.5 25.8 87 -5.3 22.5
10:10 1022 30.18 852 25.16 -3.3 26 86 -5.3 22.5
10:15 1023 30.21 852 25.16 -3.2 26.3 86 -5.2 22.6
10:20 1023 30.21 852 25.16 -3.1 26.4 85 -5.4 22.4
10:25 1023 30.21 852 25.16 -3 26.5 85 -5.2 22.6
10:30 1023 30.21 852 25.16 -2.8 26.9 85 -5 23
10:35 1023 30.21 852 25.16 -2.7 27.1 84 -5.1 22.8
10:40 1023 30.21 852 25.16 -2.7 27.2 82 -5.3 22.5
10:45 1023 30.21 852 25.16 -2.7 27.2 82 -5.3 22.5
10:50 1023 30.21 852 25.16 -2.6 27.3 83 -5.2 22.7
10:55 1023 30.21 852 25.16 -2.6 27.3 82 -5.2 22.6
11:00 1023 30.21 852 25.16 -2.7 27.2 81 -5.5 22.1
11:05 1023 30.21 852 25.16 -2.9 26.8 80 -5.9 21.5
11:10 1023 30.21 852 25.16 -3.1 26.3 81 -6 21.1
11:15 1023 30.21 852 25.16 -3.2 26.2 80 -6.2 20.9
11:20 1023 30.21 852 25.16 -3 26.6 81 -5.9 21.4
11:25 1023 30.21 852 25.16 -2.8 27 80 -5.7 21.7
11:30 1023 30.21 852 25.16 -2.7 27.2 78 -5.9 21.4
11:35 1023 30.21 852 25.16 -2.7 27.2 77 -6.1 21
11:40 1023 30.21 852 25.16 -2.5 27.6 76 -6.1 20.9
11:45 1023 30.21 852 25.16 -2.2 28 75 -6 21.2
11:50 1023 30.21 852 25.16 -1.8 28.7 74 -5.9 21.4
11:55 1023 30.21 852 25.16 -1.6 29.1 73 -5.8 21.6
12:00 1023 30.21 852 25.16 -1.4 29.5 73 -5.7 21.8
12:05 1023 30.21 852 25.16 -1.4 29.5 72 -5.8 21.5
12:10 1023 30.21 852 25.16 -1.3 29.6 72 -5.7 21.7
12:15 1023 30.21 852 25.16 -1.2 29.8 70 -6 21.3
12:20 1023 30.21 852 25.16 -1 30.2 70 -5.8 21.5
12:25 1023 30.21 852 25.16 -1.2 29.9 69 -6.2 20.9
12:30 1023 30.21 852 25.16 -1.6 29.2 68 -6.7 20
12:35 1023 30.21 852 25.16 -1.7 28.9 68 -7 19.5
12:40 1023 30.21 852 25.16 -2 28.5 69 -6.9 19.6
12:45 1023 30.21 852 25.16 -2.3 27.9 69 -7.2 19
12:50 1023 30.21 852 25.16 -2.5 27.5 70 -7.3 18.9
12:55 1023 30.21 852 25.16 -2.4 27.6 72 -6.8 19.8
13:00 1023 30.21 852 25.16 -2.4 27.7 71 -7 19.5
13:05 1023 30.21 852 25.16 -2.3 27.8 69 -7.3 18.9
13:10 1023 30.21 852 25.16 -2.3 27.8 68 -7.4 18.7
13:15 1023 30.21 852 25.16 -2.3 27.8 67 -7.6 18.2
13:20 1023 30.21 852 25.16 -2.4 27.7 68 -7.5 18.5
13:25 1023 30.21 852 25.16 -2.3 27.9 68 -7.4 18.8
13:30 1023 30.21 852 25.16 -2.3 27.9 67 -7.6 18.3
13:35 1023 30.21 852 25.16 -2.3 27.8 68 -7.5 18.5
13:40 1023 30.21 852 25.16 -2.3 27.8 66 -7.9 17.8
13:45 1023 30.21 852 25.16 -2.3 27.9 69 -7.3 18.8
13:50 1023 30.21 852 25.16 -2.3 27.8 66 -7.8 18
13:55 1023 30.21 852 25.16 -2.3 27.8 69 -7.4 18.8
14:00 1023 30.21 852 25.16 -2.5 27.6 68 -7.6 18.4
14:05 1023 30.21 852 25.16 -2.6 27.3 67 -8 17.7
14:10 1023 30.21 852 25.16 -2.6 27.4 66 -8.1 17.4
14:15 1023 30.21 852 25.16 -2.6 27.2 67 -8 17.6
14:20 1023 30.21 852 25.16 -2.7 27.1 67 -8.1 17.5
14:25 1023 30.21 852 25.16 -2.7 27.1 66 -8.2 17.3
14:30 1023 30.21 852 25.16 -3 26.6 68 -8.2 17.3
14:35 1023 30.21 852 25.16 -3.4 25.9 68 -8.4 16.8
14:40 1023 30.21 852 25.16 -3.8 25.1 68 -8.9 16
14:45 1023 30.21 852 25.16 -3.9 25 68 -8.9 16
14:50 1023 30.21 852 25.16 -4 24.7 71 -8.6 16.5
14:55 1023 30.21 852 25.16 -4.2 24.4 68 -9.2 15.4
15:00 1023 30.21 852 25.16 -4.4 24.1 68 -9.3 15.2
15:05 1023 30.21 852 25.16 -4.6 23.7 71 -9.1 15.5
15:10 1023 30.21 852 25.16 -4.6 23.7 71 -9.2 15.4
15:15 1023 30.21 852 25.16 -4.6 23.7 72 -8.9 16
15:20 1023 30.21 852 25.16 -4.7 23.5 69 -9.5 14.9
15:25 1023 30.21 852 25.16 -4.6 23.7 68 -9.6 14.8
15:30 1023 30.21 852 25.16 -4.5 23.8 70 -9.2 15.4
15:35 1023 30.21 852 25.16 -4.7 23.5 71 -9.2 15.5
15:40 1023 30.21 852 25.16 -4.8 23.3 70 -9.5 14.8
15:45 1023 30.21 852 25.16 -4.8 23.4 71 -9.3 15.3
15:50 1023 30.21 852 25.16 -4.8 23.3 70 -9.5 14.9
15:55 1023 30.21 852 25.16 -4.8 23.4 69 -9.6 14.7
16:00 1023 30.21 852 25.16 -4.8 23.4 68 -9.8 14.4
16:05 1023 30.21 852 25.16 -4.8 23.4 69 -9.6 14.7
16:10 1023 30.21 852 25.16 -4.9 23.2 69 -9.7 14.5
16:15 1023 30.21 852 25.16 -4.9 23.3 69 -9.7 14.5
16:20 1023 30.21 852 25.16 -4.8 23.4 68 -9.7 14.5
16:25 1023 30.21 852 25.16 -4.8 23.4 71 -9.3 15.2
16:30 1023 30.21 852 25.16 -5 23 72 -9.4 15.1
16:35 1023 30.21 852 25.16 -5.3 22.5 72 -9.6 14.7
16:40 1023 30.21 852 25.16 -5.3 22.4 71 -9.9 14.2
16:45 1023 30.21 852 25.16 -5.3 22.4 70 -9.9 14.1
16:50 1023 30.21 852 25.16 -5.4 22.4 71 -9.8 14.4
16:55 1023 30.21 852 25.16 -5.5 22.2 72 -9.8 14.3
17:00 1023 30.21 852 25.16 -5.6 22 72 -9.8 14.4
17:05 1023 30.21 852 25.16 -5.5 22 72 -9.8 14.4
17:10 1023 30.21 852 25.16 -5.5 22.1 71 -10 14.1
17:15 1023 30.21 852 25.16 -5.5 22 72 -9.9 14.2
17:20 1023 30.21 852 25.16 -5.6 22 70 -10.1 13.7
17:25 1023 30.21 852 25.16 -5.6 21.9 71 -10 14
17:30 1023 30.21 852 25.16 -5.7 21.7 71 -10.2 13.6
17:35 1023 30.21 852 25.16 -5.9 21.5 70 -10.4 13.2
17:40 1023 30.21 853 25.19 -5.8 21.6 71 -10.3 13.5
17:45 1023 30.21 853 25.19 -5.6 21.9 70 -10.3 13.4
17:50 1023 30.21 853 25.19 -5.5 22.1 69 -10.3 13.5
17:55 1023 30.21 853 25.19 -5.6 22 69 -10.4 13.3
18:00 1023 30.21 853 25.19 -5.7 21.8 69 -10.5 13.1
18:05 1023 30.21 853 25.19 -5.7 21.7 69 -10.5 13.1
18:10 1023 30.21 853 25.19 -5.7 21.7 68 -10.7 12.8
18:15 1023 30.21 853 25.19 -5.7 21.7 67 -10.9 12.3
18:20 1023 30.21 853 25.19 -5.8 21.6 67 -11 12.2
18:25 1023 30.21 853 25.19 -6 21.3 68 -11 12.2
18:30 1023 30.21 853 25.19 -6 21.1 68 -11 12.2
18:35 1023 30.21 853 25.19 -6 21.2 70 -10.6 12.9
18:40 1024 30.24 853 25.19 -6 21.1 70 -10.7 12.8
18:45 1024 30.24 853 25.19 -6.1 20.9 73 -10.2 13.6
18:50 1024 30.24 853 25.19 -6.3 20.7 75 -10 14
18:55 1024 30.24 853 25.19 -6.4 20.4 76 -10 13.9
19:00 1024 30.24 853 25.19 -6.6 20.2 76 -10.1 13.9
19:05 1024 30.24 853 25.19 -6.6 20 77 -10.1 13.8
19:10 1024 30.24 853 25.19 -6.8 19.8 77 -10.1 13.7
19:15 1024 30.24 853 25.19 -6.9 19.6 77 -10.3 13.5
19:20 1024 30.24 853 25.19 -7 19.4 75 -10.7 12.8
19:25 1024 30.24 853 25.19 -7 19.5 74 -10.9 12.5
19:30 1024 30.24 853 25.19 -6.9 19.5 74 -10.8 12.5
19:35 1024 30.24 853 25.19 -6.9 19.6 74 -10.8 12.6
19:40 1024 30.24 853 25.19 -6.8 19.8 76 -10.4 13.2
19:45 1024 30.24 853 25.19 -6.7 19.9 77 -10.2 13.6
19:50 1024 30.24 853 25.19 -6.8 19.7 75 -10.5 13.1
19:55 1024 30.24 853 25.19 -7 19.4 77 -10.4 13.2
20:00 1024 30.24 853 25.19 -7.2 19.1 78 -10.5 13.2
20:05 1024 30.24 853 25.19 -7.3 18.9 78 -10.5 13.2
20:10 1024 30.24 853 25.19 -7.4 18.8 78 -10.5 13
20:15 1024 30.24 853 25.19 -7.5 18.5 79 -10.5 13
20:20 1024 30.24 853 25.19 -7.6 18.4 79 -10.7 12.8
20:25 1024 30.24 853 25.19 -7.7 18.2 79 -10.7 12.8
20:30 1024 30.24 853 25.19 -7.7 18.2 80 -10.6 12.9
20:35 1024 30.24 853 25.19 -7.6 18.4 80 -10.4 13.2
20:40 1024 30.24 853 25.19 -7.4 18.6 79 -10.5 13.2
20:45 1024 30.24 854 25.22 -7.2 19 78 -10.4 13.3
20:50 1024 30.24 854 25.22 -7 19.4 76 -10.5 13
20:55 1025 30.27 854 25.22 -6.7 20 75 -10.3 13.4
21:00 1025 30.27 854 25.22 -6.4 20.5 74 -10.4 13.4
21:05 1025 30.27 854 25.22 -6.3 20.7 74 -10.2 13.6
21:10 1025 30.27 854 25.22 -6.2 20.8 75 -10 14.1
21:15 1025 30.27 854 25.22 -6.3 20.7 72 -10.5 13
21:20 1025 30.27 854 25.22 -6.3 20.7 70 -10.9 12.3
21:25 1025 30.27 854 25.22 -6.3 20.6 69 -11.1 11.9
21:30 1025 30.27 854 25.22 -6.4 20.5 69 -11.2 11.8
21:35 1025 30.27 854 25.22 -6.5 20.4 69 -11.3 11.7
21:40 1025 30.27 854 25.22 -6.4 20.6 68 -11.3 11.7
21:45 1025 30.27 854 25.22 -6.2 20.8 68 -11.3 11.7
21:50 1025 30.27 854 25.22 -6.1 21.1 67 -11.2 11.8
21:55 1025 30.27 854 25.22 -5.9 21.3 67 -11.1 12.1
22:00 1025 30.27 854 25.22 -5.8 21.6 66 -11.2 11.9
22:05 1025 30.27 854 25.22 -5.7 21.7 68 -10.8 12.5
22:10 1025 30.27 854 25.22 -5.7 21.8 69 -10.5 13.1
22:15 1025 30.27 854 25.22 -5.7 21.8 68 -10.6 13
22:20 1025 30.27 854 25.22 -5.6 21.9 68 -10.6 12.9
22:25 1025 30.27 854 25.22 -5.5 22.1 69 -10.3 13.5
22:30 1025 30.27 854 25.22 -5.5 22 70 -10.1 13.7
22:35 1025 30.27 854 25.22 -5.6 21.9 71 -10.1 13.8
22:40 1025 30.27 854 25.22 -5.7 21.8 70 -10.3 13.5
22:45 1025 30.27 854 25.22 -5.8 21.6 73 -9.9 14.1
22:50 1025 30.27 854 25.22 -5.8 21.5 68 -10.8 12.5
22:55 1025 30.27 854 25.22 -5.7 21.7 66 -11.2 11.9
23:00 1025 30.27 854 25.22 -5.6 21.9 64 -11.4 11.4
23:05 1025 30.27 854 25.22 -5.5 22.2 65 -11.1 12
23:10 1025 30.27 854 25.22 -5.5 22.1 66 -10.9 12.3
23:15 1025 30.27 854 25.22 -5.6 22 66 -11 12.1
23:20 1025 30.27 854 25.22 -5.6 21.9 66 -11 12.2
23:25 1025 30.27 854 25.22 -5.7 21.7 68 -10.8 12.6
23:30 1025 30.27 854 25.22 -5.8 21.5 68 -10.8 12.5
23:35 1025 30.27 855 25.25 -5.9 21.4 69 -10.8 12.6
23:40 1025 30.27 855 25.25 -6 21.3 69 -10.7 12.8
23:45 1026 30.3 855 25.25 -6.1 21 70 -10.7 12.8
23:50 1026 30.3 855 25.25 -6.3 20.6 70 -10.9 12.3
23:55 1026 30.3 855 25.25 -6.4 20.5 69 -11.1 12
24:00 1026 30.3 855 25.25 -6.4 20.4 70 -11.1 12.1